Location: Couloutre
(47.4081°N, 3.2259°E)
Time: 20:31:22
(UTC+00:00)

Cosmos 192 - Pass Details

Date: 27 February 2020
Orbit: 701 x 713 km, 74.0° (Epoch: 03 April)

Event Time Altitude Azimuth Distance (km) Brightness Sun altitude
Rises 18:44:26 0° 196° (SSW) 3,079 7.8 -13.7°
Reaches altitude 10° 18:46:44 10° 195° (SSW) 2,164 7.0 -14.0°
Maximum altitude 18:51:37 76° 110° (ESE) 727 4.2 -14.9°
Drops below altitude 10° 18:56:31 10° 25° (NNE) 2,177 6.7 -15.7°
Sets 18:58:51 0° 24° (NNE) 3,100 7.5 -16.1°
